weather.gov     
National Weather Service

Regional Weather Roundup
NWS Homepage
This page is being discontinued on March 12, 2014.
The same data is available at this site. Please update your bookmarks.
Thank you, and we apologize for the inconvenience.
Please send an email to SR-SRH.Webmaster@noaa.gov with any concerns.


Current Version
Previous Version:    01  02  03  04  05  06  07  08  09  10  11  12  13  14  15  16  17  18  19  20  21  22  23  24  25  26  27  28  29  30  
   31  32  33  34  35  36  37  38  39  40  41  42  43  44  45  46  47  48  49  50  51  52  53  
[Printable]
792
ASUS45 KABQ 211310
RWRNM
WEATHER ROUNDUP FOR NEW MEXICO
NATIONAL WEATHER SERVICE ALBUQUERQUE NM
700 AM MDT TUE OCT 21 2014

NOTE: "FAIR" MEANS FEW OR NO CLOUDS BELOW 12,000 FEET AGL WITH NO
       SIGNIFICANT WEATHER OR OBSTRUCTIONS TO VISION.

      THIS PRODUCT IS RELEASED AS TWO VERSIONS.  ONE VERSION NEAR
      THE TOP OF THE HOUR CONTAINING PRELIMINARY DATA FROM ALBUQUERQUE
      AND OTHER STATIONS.  A FINAL VERSION WITH ADDITIONAL DATA IS
      ISSUED ABOUT 10 MINUTES AFTER THE HOUR.

NMZ501-503-504-510>518-211400-
NORTHWEST PLATEAU/NORTHCENTRAL MOUNTAINS

CITY           SKY/WX    TMP DP  RH WIND       PRES   REMARKS
FARMINGTON     CLEAR     49  43  80 E3        30.13R
LOS ALAMOS     CLOUDY    48  44  85 CALM      30.23S
SANTA FE       CLOUDY    48  45  89 NE6       30.19S
TAOS           PTCLDY    36  30  80 NW3       30.24R
ANGEL FIRE     FOG       31  30  94 CALM      30.30R VSB 1/4

$$
NMZ402-403-502-505>509-211400-
WESTCENTRAL MOUNTAINS/SOUTHWEST MOUNTAINS

CITY           SKY/WX    TMP DP  RH WIND       PRES   REMARKS
GALLUP         CLEAR     37  35  92 CALM      30.17S
GRANTS         CLEAR     36  34  93 CALM      30.20S
SILVER CITY    CLOUDY    54  48  82 E5        30.14S

$$
NMZ407-409-411-412-211400-
SOUTHERN DESERTS

CITY           SKY/WX    TMP DP  RH WIND       PRES   REMARKS
LORDSBURG      FAIR      52  50  93 MISG      30.07S
DEMING         CLEAR     51  50  96 E6        30.08R
LAS CRUCES     CLEAR     52  51  96 N5        30.10R
HOLLOMAN AFB   MOCLDY    54  54 100 CALM      30.08S
T OR C         PTCLDY    52  50  93 N5        30.12R

$$
NMZ519>523-211400-
CENTRAL VALLEYS/CENTRAL HIGHLANDS

CITY           SKY/WX    TMP DP  RH WIND       PRES   REMARKS
ALBUQUERQUE    CLOUDY    54  46  74 N7        30.15S
DOUBLE EAGLE   CLOUDY    50  46  87 CALM      30.17S
MORIARTY ARPT  CLOUDY    46  44  92 CALM      30.20S
CLINES CORNERS CLOUDY    48  43  82 SE6       30.21R
BELEN          NOT AVBL
SOCORRO        MOCLDY    48  47  96 NW3       30.14S

$$
NMZ524>526-539-540-211400-
SOUTHCENTRAL MOUNTAINS

CITY           SKY/WX    TMP DP  RH WIND       PRES   REMARKS
RUIDOSO        NOT AVBL

$$
NMZ527>531-211400-
NORTHEAST HIGHLANDS/NORTHEAST PLAINS

CITY           SKY/WX    TMP DP  RH WIND       PRES   REMARKS
LAS VEGAS      CLOUDY    46  43  89 S7        30.22S
RATON          CLEAR     38  35  89 NE6       30.18S WCI  33
CLAYTON        CLEAR     49  42  77 W8        30.13R

$$
NMZ532>537-211400-
EASTCENTRAL PLAINS

CITY           SKY/WX    TMP DP  RH WIND       PRES   REMARKS
TUCUMCARI      CLEAR     48  44  86 CALM      30.12S
CANNON AFB     CLEAR     49  47  92 N5        30.15R
CLOVIS AIRPORT NOT AVBL

$$
NMZ028-029-538-211400-
SOUTHEAST PLAINS

CITY           SKY/WX    TMP DP  RH WIND       PRES   REMARKS
ROSWELL        CLOUDY    57  55  93 N3        30.11F
CARLSBAD       CLOUDY    61  59  93 NW5       30.08R FOG
HOBBS          MOCLDY    55  55 100 E5        30.12S


$$




U.S. Dept. of Commerce
NOAA National Weather Service
1325 East West Highway
Silver Spring, MD 20910
E-mail: w-nws.webmaster@noaa.gov
Page last modified: May 16, 2007
NATIONAL WEATHER SERVICE: for Safety, for Work, for Fun - FOR LIFE